Terminal Aerodrome Forecast
Issued by NWS

Home | Current Version | Previous Version | Graphics & Text | Print | Product List | Glossary On
Versions: 1 2 3 4 5 6 7 8 9 10 11 12 13 14
000
FTUS43 KMPX 262156 AAB
TAFRWF
TAF AMD
KRWF 262156Z 2622/2718 33012G18KT P6SM BKN025
     FM270000 30005KT P6SM SKC
     FM271400 25005KT P6SM SKC=

USA.gov is the U.S. government's official web portal to all federal, state and local government web resources and services.